This is the latest recevied weather packets stored in our database for station/object WX4ET. If no packets are shown the sender has not sent any weather packets the latest 10 day(s).
| Time | Temp. | Humidity | Pressure | Rain* | Wind** | Luminosity | Snow |
|---|---|---|---|---|---|---|---|
| 1777336035 | 22.22° C | 56% | 1011.2 hPa | 0 mm | - | 0 W/m² | - |
| 1777335732 | 22.22° C | 55% | 1011.4 hPa | 0 mm | - | 0 W/m² | - |
| 1777335429 | 22.22° C | 56% | 1011.6 hPa | 0 mm | - | 0 W/m² | - |
| 1777335126 | 22.78° C | 54% | 1011.5 hPa | 0 mm | - | 1 W/m² | - |
| 1777334824 | 22.78° C | 54% | 1011.4 hPa | 0 mm | - | 4 W/m² | - |
| 1777334521 | 23.33° C | 54% | 1011.5 hPa | 0 mm | - | 8 W/m² | - |
| 1777334217 | 23.89° C | 52% | 1011.4 hPa | 0 mm | - | 12 W/m² | - |
| 1777333917 | 23.89° C | 51% | 1011.4 hPa | 0 mm | - | 17 W/m² | - |
| 1777333614 | 24.44° C | 49% | 1011.4 hPa | 0 mm | - | 21 W/m² | - |
| 1777333310 | 25° C | 48% | 1011.1 hPa | 0 mm | - | 27 W/m² | - |
| 1777333009 | 25.56° C | 47% | 1011.5 hPa | 0 mm | - | 32 W/m² | - |
| 1777332707 | 26.11° C | 47% | 1011.4 hPa | 0 mm | - | 35 W/m² | - |
| 1777332403 | 26.11° C | 47% | 1011.3 hPa | 0 mm | - | 39 W/m² | - |
| 1777332099 | 26.11° C | 47% | 1011.4 hPa | 0 mm | - | 42 W/m² | - |
| 1777331797 | 26.67° C | 46% | 1011.3 hPa | 0 mm | - | 46 W/m² | - |
| 1777331494 | 26.67° C | 48% | 1011.4 hPa | 0 mm | - | 66 W/m² | - |
| 1777331192 | 26.67° C | 46% | 1011.1 hPa | 0 mm | - | 73 W/m² | - |
| 1777330889 | 27.78° C | 46% | 1011 hPa | 0 mm | - | 86 W/m² | - |
| 1777330586 | 27.78° C | 42% | 1011.1 hPa | 0 mm | - | 101 W/m² | - |
| 1777330283 | 28.89° C | 43% | 1010.9 hPa | 0 mm | - | 116 W/m² | - |
| 1777329980 | 28.33° C | 43% | 1010.9 hPa | 0 mm | - | 133 W/m² | - |
| 1777329680 | 28.33° C | 43% | 1010.9 hPa | 0 mm | - | 137 W/m² | - |
| 1777329377 | 28.89° C | 42% | 1010.8 hPa | 0 mm | - | 147 W/m² | - |
| 1777329074 | 28.89° C | 44% | 1011 hPa | 0 mm | - | 178 W/m² | - |
| 1777328772 | 28.33° C | 44% | 1011 hPa | 0 mm | - | 193 W/m² | - |
* Rain latest hour (hover to see other rain measurements)
** Current wind speed in m/s (hover to see current wind gust speed)